[[{"header":{"parameterUnit":"m.s-1","parameterCategory":1,"la1":30.2991,"la2":30.254,"lo1":-89.0895,"lo2":-89.0444,"dy":0.0017,"dx":0.0017,"nx":28,"ny":28,"refTime":"2025-08-25T09:00:00:Z","depth":0,"parameterNumber":2,"parameterNumberName":"U-component_of_WINDS"},"data":[0,0,0,0,0,0,0,0,0,0,0,0,0,0,0,0,0,0,0,0,0,0,0,0,0,0,0,0,0,0,0,0,0,0,0,0,0,0,0,0,0,0,0,0,0,0,0,0,0,0,0,0,0,0,0,0,0,0,-2.7897,-2.7895,0,-2.7747,-2.7746,-2.7744,-2.7574,-2.7572,-2.7569,-2.7567,-2.7412,-2.741,-2.7408,0,0,0,0,0,0,0,0,0,0,0,0,0,-2.8035,-2.8034,-2.7897,-2.7895,-2.7893,-2.7748,-2.7746,-2.7744,-2.7575,-2.7571,-2.7568,-2.7566,-2.7412,-2.741,-2.7408,0,0,0,0,0,0,0,0,0,0,0,0,0,-2.794,-2.8033,-2.7897,-2.7792,-2.7781,-2.7748,-2.7746,-2.7743,-2.7575,-2.7571,-2.7568,-2.7564,-2.7413,-2.741,-2.7408,-2.7467,0,0,-2.74,-2.7398,0,0,0,0,0,0,0,0,-2.7945,-2.7935,-2.7809,-2.7799,-2.7786,-2.7676,-2.7737,-2.765,-2.7576,-2.7653,-2.7567,-2.7562,-2.7502,-2.7492,-2.7472,-2.746,-2.7453,-2.7399,-2.7398,-2.7397,-2.7396,0,0,0,0,0,0,0,-2.7952,-2.794,-2.7838,-2.7807,-2.7794,-2.7751,-2.7733,-2.772,-2.7601,-2.7646,-2.7633,-2.7618,-2.7496,-2.7475,-2.7467,-2.7451,-2.7399,-2.7397,-2.7395,-2.7394,-2.7481,-2.7485,0,0,0,0,0,0,-2.7975,-2.7947,-2.7842,-2.7833,-2.7858,-2.7752,-2.7732,-2.7715,-2.76,-2.7579,-2.7622,-2.7611,-2.7482,-2.7471,-2.7461,-2.7525,-2.7397,-2.7394,-2.7393,-2.7477,-2.7482,-2.7486,0,0,0,0,0,0,-2.7979,-2.7967,-2.7848,-2.7887,-2.7868,-2.7753,-2.7736,-2.7714,-2.7694,-2.7582,-2.756,-2.7623,-2.7478,-2.7465,-2.7467,-2.7517,-2.7393,-2.7391,-2.7473,-2.7479,-2.7484,-2.7651,0,0,0,0,0,0,-2.7983,-2.797,-2.7991,-2.7888,-2.7867,-2.7858,-2.7739,-2.7714,-2.769,-2.7674,-2.7577,-2.7558,-2.7474,-2.7472,-2.7465,-2.7511,-2.7388,-2.7468,-2.7475,-2.7482,-2.7641,-2.7662,-2.7681,0,0,0,0,0,-2.7989,-2.8043,-2.7993,-2.7981,-2.7891,-2.7861,-2.7849,-2.7752,-2.7694,-2.7715,-2.7644,-2.7561,-2.7513,-2.7474,-2.7464,-2.751,-2.7464,-2.7473,-2.7482,-2.7632,-2.7658,-2.768,0,0,0,0,0,0,-2.8153,-2.8028,-2.7971,-2.7994,-2.794,-2.7833,-2.7855,-2.7783,-2.7743,-2.773,-2.7612,-2.7591,-2.7608,-2.7559,-2.7518,-2.7562,-2.7476,-2.7484,-2.7594,-2.7618,-2.7637,-2.7649,-2.7386,0,0,0,0,0,-2.8193,-2.8179,-2.8069,-2.81,-2.8076,-2.7972,-2.7954,-2.7885,-2.7824,-2.78,-2.7728,-2.7672,-2.7644,-2.7628,-2.7596,-2.7633,-2.761,-2.766,-2.768,-2.7696,-2.7704,-2.7722,-2.7743,-2.7515,-2.7515,-2.7515,0,0,-2.8273,-2.8203,-2.8201,-2.8132,-2.8082,-2.807,-2.7953,-2.7945,-2.7936,-2.7798,-2.7797,-2.7743,-2.7672,-2.7693,-2.7698,-2.7652,-2.7762,-2.7707,-2.7722,-2.772,-2.7733,-2.7755,-2.7774,-2.7521,-2.752,-2.7519,0,0,-2.8414,-2.8359,-2.838,-2.8332,-2.8259,-2.8189,-2.8194,-2.8098,-2.8058,-2.8054,-2.7952,-2.7938,-2.7892,-2.7847,-2.7818,-2.7944,-2.7867,-2.7937,-2.804,-2.8059,-2.8077,-2.8092,-2.8139,-2.8157,-2.7945,-2.7945,-2.7945,0,-2.8523,-2.8502,-2.8399,-2.8399,-2.8372,-2.8248,-2.8269,-2.8227,-2.8147,-2.8131,-2.8081,-2.8022,-2.7965,-2.7975,-2.8006,-2.7986,-2.7989,-2.7947,-2.8083,-2.8097,-2.811,-2.8153,-2.8171,-2.7954,-2.7953,-2.7952,-2.7951,0,-2.8641,-2.8629,-2.8654,-2.8581,-2.8557,-2.8567,-2.8465,-2.8453,-2.8387,-2.8322,-2.8322,-2.8249,-2.8202,-2.8198,-2.8132,-2.8199,-2.8173,-2.8105,-2.8016,-2.8143,-2.8182,-2.8197,-2.7967,-2.7964,-2.7961,-2.7959,0,0,-2.8881,-2.8753,-2.8764,-2.873,-2.864,-2.8628,-2.8633,-2.8588,-2.858,-2.8529,-2.8531,-2.8496,-2.8433,-2.84,-2.8328,-2.8344,-2.8452,-2.8273,-2.827,-2.8311,-2.8523,-2.8576,-2.8597,-2.84,-2.8402,-2.8404,-2.8529,0,-2.9007,-2.9009,-2.8917,-2.8944,-2.8932,-2.8816,-2.882,-2.8766,-2.8706,-2.8687,-2.862,-2.8598,-2.8515,-2.8495,-2.8506,-2.8437,-2.8493,-2.8426,-2.8401,-2.8401,-2.8424,-2.8616,-2.8672,-2.8793,-2.8543,-2.8546,-2.8548,0,-2.9154,-2.9114,-2.9141,-2.9052,-2.9043,-2.9049,-2.9001,-2.8984,-2.892,-2.8876,-2.8841,-2.8759,-2.8758,-2.8674,-2.8672,-2.8629,-2.8613,-2.8577,-2.8579,-2.8574,-2.8483,-2.8618,-2.8829,-2.8849,-2.857,-2.8568,-2.8567,0,-2.9329,-2.9281,-2.9291,-2.9265,-2.9162,-2.9169,-2.9126,-2.9058,-2.9038,-2.8995,-2.8981,-2.8939,-2.8916,-2.8886,-2.8796,-2.8743,-2.8804,-2.8712,-2.8768,-2.8771,-2.8787,-2.8788,-2.9001,-2.8775,-2.8775,-2.8775,-2.8774,0,-2.948,-2.9501,-2.9368,-2.9375,-2.9396,-2.929,-2.9314,-2.9259,-2.9201,-2.9195,-2.909,-2.9087,-2.8967,-2.8951,-2.888,-2.889,-2.888,-2.8844,-2.8826,-2.8855,-2.886,-2.8843,-2.8833,-2.8779,-2.8778,-2.8777,-2.8777,0,-2.9679,-2.959,-2.9594,-2.9496,-2.9472,-2.9493,-2.9408,-2.9411,-2.9345,-2.9339,-2.9332,-2.9229,-2.9204,-2.9111,-2.9063,-2.9015,-2.9049,-2.9011,-2.9071,-2.9059,-2.9121,-2.9117,-2.9332,-2.9355,-2.9115,-2.9117,-2.9119,0,-2.9781,-2.9795,-2.97,-2.9689,-2.9651,-2.9635,-2.9614,-2.951,-2.9493,-2.9423,-2.9434,-2.9401,-2.9369,-2.9336,-2.9257,-2.922,-2.9181,-2.9259,-2.9175,-2.9205,-2.9185,-2.9186,-2.9187,-2.9278,-2.9281,-2.9284,-2.9286,0,-2.9974,-2.993,-2.9904,-2.9864,-2.9842,-2.9805,-2.9761,-2.9758,-2.9643,-2.9629,-2.9603,-2.9579,-2.9531,-2.95,-2.9451,-2.9406,-2.9328,-2.9313,-2.9324,-2.9355,-2.939,-2.9373,-2.9122,-2.9309,-2.9306,-2.9305,-2.9303,-2.9302,-3.0128,-3.0136,-3.0071,-3.0046,-3.0003,-2.9966,-2.9964,-2.9899,-2.9876,-2.983,-2.977,-2.9753,-2.969,-2.9616,-2.9578,-2.9562,-2.9518,-2.9534,-2.9539,-2.9545,-2.956,-2.9392,-2.9553,-2.9552,-2.9551,-2.955,-2.955,0,-3.0317,-3.027,-3.0248,-3.0192,-3.0173,-3.0101,-3.005,-3.0039,-3.0025,-2.9973,-2.9945,-2.9917,-2.9887,-2.9807,-2.9769,-2.9772,-2.9736,-2.9766,-2.9766,-2.9757,-2.96,-2.9595,-2.9797,-2.9797,-2.9797,-2.9797,-2.9797,-2.9797,-3.0413,-3.0423,-3.0373,-3.0361,-3.0313,-3.0296,-3.0273,-3.0238,-3.0197,-3.0171,-3.0146,-3.0094,-3.0031,-2.9988,-2.9958,-2.9935,-2.9927,-2.997,-2.9936,-2.9791,-2.9768,-2.9745,-2.974,-2.9969,-2.9969,-3.0094,-3.0095,-3.0096]},{"header":{"parameterUnit":"m.s-1","parameterCategory":1,"la1":30.2991,"la2":30.254,"lo1":-89.0895,"lo2":-89.0444,"dy":0.0017,"dx":0.0017,"nx":28,"ny":28,"refTime":"2025-08-25T09:00:00:Z","depth":0,"parameterNumber":3,"parameterNumberName":"V-component_of_WINDS"},"data":[0,0,0,0,0,0,0,0,0,0,0,0,0,0,0,0,0,0,0,0,0,0,0,0,0,0,0,0,0,0,0,0,0,0,0,0,0,0,0,0,0,0,0,0,0,0,0,0,0,0,0,0,0,0,0,0,0,0,-2.2468,-2.2469,0,-2.2528,-2.2529,-2.253,-2.252,-2.2519,-2.2518,-2.2517,-2.2576,-2.2579,-2.2581,0,0,0,0,0,0,0,0,0,0,0,0,0,-2.2342,-2.2344,-2.2468,-2.2469,-2.247,-2.2528,-2.2529,-2.253,-2.252,-2.2519,-2.2518,-2.2517,-2.2575,-2.2578,-2.2582,0,0,0,0,0,0,0,0,0,0,0,0,0,-2.2399,-2.2345,-2.2468,-2.2472,-2.2473,-2.2528,-2.2529,-2.253,-2.252,-2.2519,-2.2517,-2.2516,-2.2574,-2.2578,-2.2582,-2.2637,0,0,-2.2594,-2.2595,0,0,0,0,0,0,0,0,-2.2396,-2.2404,-2.247,-2.2472,-2.2473,-2.2515,-2.2506,-2.2566,-2.2521,-2.2502,-2.2517,-2.2515,-2.2557,-2.2562,-2.2577,-2.2639,-2.2642,-2.2594,-2.2596,-2.2598,-2.2599,0,0,0,0,0,0,0,-2.2392,-2.2401,-2.2492,-2.2471,-2.2473,-2.247,-2.2476,-2.2518,-2.2538,-2.2504,-2.2503,-2.2511,-2.2557,-2.2573,-2.2578,-2.2643,-2.2594,-2.2597,-2.26,-2.2601,-2.2754,-2.2755,0,0,0,0,0,0,-2.2387,-2.2398,-2.249,-2.2494,-2.243,-2.2473,-2.248,-2.2503,-2.2537,-2.2541,-2.2512,-2.251,-2.2567,-2.2574,-2.258,-2.2647,-2.2598,-2.2601,-2.2604,-2.2752,-2.2754,-2.2756,0,0,0,0,0,0,-2.2384,-2.2395,-2.2487,-2.2446,-2.2457,-2.2477,-2.2503,-2.2505,-2.2521,-2.2543,-2.2546,-2.2525,-2.2566,-2.2575,-2.2623,-2.2649,-2.2603,-2.2607,-2.275,-2.2753,-2.2755,-2.2781,0,0,0,0,0,0,-2.2381,-2.2394,-2.2416,-2.2446,-2.2459,-2.253,-2.2504,-2.2507,-2.2528,-2.2526,-2.2556,-2.256,-2.2566,-2.2617,-2.2627,-2.2653,-2.261,-2.2748,-2.2751,-2.2754,-2.2778,-2.2784,-2.2789,0,0,0,0,0,-2.2376,-2.242,-2.2417,-2.2428,-2.2487,-2.2531,-2.2539,-2.2546,-2.253,-2.2552,-2.2566,-2.2559,-2.2644,-2.2622,-2.2633,-2.2661,-2.2746,-2.275,-2.2754,-2.2775,-2.2783,-2.2789,0,0,0,0,0,0,-2.2391,-2.2424,-2.2421,-2.2476,-2.2501,-2.253,-2.2557,-2.2554,-2.2583,-2.258,-2.2587,-2.2594,-2.2643,-2.2657,-2.2631,-2.2716,-2.2693,-2.2699,-2.2705,-2.2713,-2.2719,-2.2715,-2.2613,0,0,0,0,0,-2.2401,-2.2436,-2.2462,-2.2508,-2.2521,-2.2537,-2.2556,-2.256,-2.2586,-2.2596,-2.2614,-2.2639,-2.2671,-2.2693,-2.2724,-2.2779,-2.2786,-2.2804,-2.281,-2.2814,-2.282,-2.2851,-2.2859,-2.2769,-2.2769,-2.2769,0,0,-2.2421,-2.2444,-2.2465,-2.2511,-2.2531,-2.2566,-2.2546,-2.2583,-2.2609,-2.2602,-2.2649,-2.2663,-2.2691,-2.2743,-2.2767,-2.2756,-2.2846,-2.282,-2.2823,-2.2826,-2.2856,-2.2864,-2.2872,-2.2772,-2.2771,-2.2771,0,0,-2.2477,-2.2497,-2.2538,-2.2558,-2.2589,-2.26,-2.2609,-2.2639,-2.2648,-2.2696,-2.2691,-2.2721,-2.2777,-2.2798,-2.2815,-2.2879,-2.2874,-2.2889,-2.2919,-2.295,-2.2957,-2.2963,-2.2987,-2.2995,-2.2894,-2.2894,-2.2894,0,-2.2498,-2.2551,-2.2559,-2.2598,-2.2618,-2.2614,-2.2655,-2.2675,-2.2714,-2.2728,-2.2715,-2.2786,-2.2804,-2.2862,-2.2877,-2.2892,-2.2903,-2.2886,-2.2955,-2.2962,-2.2968,-2.299,-2.2999,-2.2896,-2.2896,-2.2896,-2.2895,0,-2.2576,-2.2613,-2.2642,-2.2682,-2.2706,-2.2745,-2.2758,-2.2781,-2.2783,-2.2795,-2.2843,-2.2865,-2.2901,-2.2915,-2.2916,-2.2973,-2.2965,-2.2954,-2.2931,-2.2978,-2.2999,-2.3008,-2.2898,-2.2898,-2.2897,-2.2897,0,0,-2.2643,-2.2686,-2.2697,-2.2715,-2.2749,-2.2777,-2.2816,-2.2853,-2.2873,-2.29,-2.2933,-2.2981,-2.2971,-2.2991,-2.2994,-2.3021,-2.3071,-2.3006,-2.3007,-2.3018,-2.3135,-2.3144,-2.3154,-2.3067,-2.3069,-2.307,-2.3133,0,-2.2702,-2.2773,-2.2781,-2.2844,-2.2878,-2.2875,-2.2909,-2.2933,-2.2945,-2.2976,-2.2988,-2.3022,-2.3006,-2.3019,-2.3045,-2.3059,-2.3094,-2.3054,-2.3098,-2.3099,-2.3092,-2.3165,-2.3174,-2.3232,-2.3141,-2.3142,-2.3143,0,-2.278,-2.2811,-2.2878,-2.2908,-2.2922,-2.2953,-2.2987,-2.3017,-2.3044,-2.3051,-2.3074,-2.3074,-2.3114,-2.3089,-2.3145,-2.3118,-2.3136,-2.3145,-2.3148,-2.3153,-2.3125,-2.3172,-2.3251,-2.326,-2.3156,-2.3155,-2.3154,0,-2.2823,-2.2881,-2.2929,-2.2944,-2.298,-2.3002,-2.3017,-2.3043,-2.3065,-2.3094,-2.3108,-2.3141,-2.316,-2.3185,-2.3194,-2.3175,-2.325,-2.3225,-2.3257,-2.3256,-2.3273,-2.3272,-2.3357,-2.3283,-2.3283,-2.3283,-2.3283,0,-2.2889,-2.293,-2.2949,-2.2978,-2.3024,-2.3032,-2.3077,-2.3092,-2.3115,-2.3147,-2.3145,-2.3175,-2.3184,-2.3216,-2.3223,-2.3268,-2.3276,-2.3283,-2.3284,-2.3283,-2.3283,-2.3296,-2.3292,-2.3285,-2.3285,-2.3284,-2.3284,0,-2.2945,-2.2959,-2.3011,-2.3041,-2.3049,-2.3082,-2.3107,-2.3135,-2.3147,-2.3187,-2.3197,-2.3215,-2.3251,-2.3263,-2.3307,-2.3312,-2.3365,-2.3362,-2.3356,-2.3357,-2.3387,-2.3384,-2.3484,-2.3498,-2.3415,-2.3416,-2.3416,0,-2.2986,-2.3018,-2.3052,-2.3073,-2.309,-2.3125,-2.3147,-2.3157,-2.318,-2.3214,-2.3238,-2.3274,-2.3304,-2.3363,-2.3379,-2.3413,-2.3412,-2.3444,-2.3417,-2.3415,-2.3413,-2.3411,-2.3415,-2.345,-2.3451,-2.3451,-2.3452,0,-2.3058,-2.3064,-2.3096,-2.3132,-2.3159,-2.3187,-2.3214,-2.3231,-2.3245,-2.327,-2.3309,-2.3332,-2.3377,-2.3414,-2.3448,-2.3463,-2.346,-2.346,-2.3469,-2.3469,-2.3465,-2.3468,-2.3371,-2.3458,-2.3457,-2.3457,-2.3457,-2.3456,-2.3108,-2.3137,-2.3166,-2.3202,-2.3224,-2.3249,-2.3277,-2.3293,-2.3325,-2.3364,-2.3367,-2.3408,-2.3435,-2.3481,-2.3498,-2.353,-2.3521,-2.3534,-2.3537,-2.354,-2.3543,-2.3459,-2.3536,-2.3536,-2.3536,-2.3536,-2.3536,0,-2.3181,-2.32,-2.3233,-2.3272,-2.33,-2.3295,-2.3325,-2.3349,-2.3386,-2.3411,-2.3441,-2.3485,-2.3521,-2.354,-2.3575,-2.3597,-2.3597,-2.3606,-2.3605,-2.3609,-2.3549,-2.3538,-2.3606,-2.3606,-2.3606,-2.3606,-2.3606,-2.3606,-2.3222,-2.3271,-2.328,-2.3338,-2.3356,-2.3397,-2.3415,-2.3438,-2.3459,-2.3508,-2.3538,-2.3551,-2.3574,-2.3611,-2.3643,-2.3648,-2.3661,-2.3672,-2.3676,-2.362,-2.3613,-2.3606,-2.3596,-2.3675,-2.3675,-2.3733,-2.3734,-2.3734]}]]